Zurück zum Katalog

CZ-4B R/B

AktivSSO
NORAD 25732·ROCKET BODY·🇨🇳 China

Gestartet May 10, 1999 von Taiyuan Satellite Launch Center

Loading…

Nächste Überflüge (nächste 24 Stunden)

TLE

AktuellSource: Space-Track

Epoche: Sep 14, 2026, 14:38 UTC

1 25732U 99025C   26257.60995796  .00000033  00000-0  36317-4 0  9997
2 25732  98.6411 297.1666 0037519 159.6932 353.3695 14.18295328414946

Verfolge CZ-4B R/B in Echtzeit mit AllMySat

Download on the App Store